Flag for Austria Weather past 2 weeks in Linz, Upper Austria, Austria

Now
68 °F

Scattered clouds.


Feels Like: 68 °F
Forecast: 53 / 60 °F
Wind: 6 mph from West

Location: Linz / Hoersching-Flughafen

Current Time: Sep 4, 2015 at 2:41:59 PM

Latest Report: Sep 4, 2015 at 1:50 PM


Visibility: N/A

Pressure: 30.01 "Hg

Humidity: 56%

Dew point: 52 °F

Location of LinzLocation

Historic Weather in Linz — Graph

°F

Linz temperature yesterday

Maximum temperature yesterday: 68 °F (at 2:20 PM)
Minimum temperature yesterday: 57 °F (at 12:50 AM)
Average temperature yesterday: 62 °F

Past Weeks' High & Low Weather Summary

 TemperatureHumidityPressure
High97 °F (Aug 31, 4:50 PM)100% (Aug 20, 9:20 PM)30.27 "Hg (Aug 20, 9:20 PM)
Low45 °F (Aug 26, 6:20 AM)16% (Aug 26, 4:20 PM)29.71 "Hg (Aug 24, 5:50 PM)
Average70 °F63%30.02 "Hg
* Reported Aug 20 1:20 PM — Sep 4 1:20 PM, Linz, Weather by CustomWeather, © 2015

Note: Actual official high and low records may vary slightly from our data, if they occured in-between our weather recording intervals... More about our weather records

Advertising

Linz weather history for previous 24 hours

 ConditionsComfort  
Time TempWeatherWind HumidityBarometerVisibility
1:20 PM
Fri, Sep 4
68 °FScattered clouds.5 mph56%30.01 "HgN/A
12:50 PM66 °FScattered clouds.5 mph60%30.01 "HgN/A
12:20 PM66 °FPassing clouds.2 mph64%30.04 "HgN/A
11:50 AM64 °FScattered clouds.5 mph68%30.04 "HgN/A
11:20 AM64 °FScattered clouds.5 mph73%30.04 "HgN/A
10:50 AM63 °FScattered clouds.5 mph77%30.04 "HgN/A
10:20 AM61 °FBroken clouds.6 mph77%30.04 "HgN/A
9:50 AM59 °FBroken clouds.5 mph82%30.04 "HgN/A
9:20 AM59 °FPartly sunny.3 mph88%30.04 "HgN/A
8:50 AM59 °FPartly sunny.5 mph88%30.04 "HgN/A
8:20 AM57 °FBroken clouds.3 mph94%30.01 "HgN/A
7:50 AM57 °FBroken clouds.5 mph94%30.01 "HgN/A
7:20 AM57 °FPassing clouds.6 mph88%30.01 "HgN/A
6:50 AM55 °FPassing clouds.3 mph94%30.01 "HgN/A
6:20 AM55 °FPassing clouds.2 mph94%30.01 "HgN/A
5:50 AM55 °FLight rain. Passing clouds.5 mph94%30.01 "HgN/A
5:20 AM55 °FPassing clouds.6 mph94%30.01 "HgN/A
4:50 AM55 °FPassing clouds.6 mph94%30.01 "HgN/A
4:20 AM55 °FLight rain. Passing clouds.6 mph94%30.01 "HgN/A
3:50 AM55 °FRain. Passing clouds.6 mph100%30.01 "HgN/A
3:20 AM57 °FRain. Passing clouds.8 mph94%30.01 "HgN/A
2:50 AM57 °FRain. Partly cloudy.7 mph94%30.01 "HgN/A
2:20 AM57 °FRain. Passing clouds.8 mph94%30.01 "HgN/A
1:50 AM57 °FRain. Passing clouds.8 mph94%30.01 "HgN/A
1:20 AM59 °FLight rain. Partly cloudy.9 mph88%30.01 "HgN/A
12:50 AM59 °FLight rain. Passing clouds.9 mph94%30.01 "HgN/A
12:20 AM59 °FRain. Partly cloudy.8 mph94%29.98 "HgN/A
11:50 PM
Thu, Sep 3
59 °FLight rain. Partly cloudy.9 mph94%29.98 "HgN/A
11:20 PM59 °FRain. Passing clouds.10 mph94%29.98 "HgN/A
10:50 PM59 °FRain showers. Partly cloudy.12 mph94%29.98 "Hg4 mi
10:20 PM61 °FRain showers. Partly cloudy.14 mph94%29.98 "Hg5 mi
9:50 PM61 °FSprinkles. Passing clouds.15 mph94%29.95 "Hg6 mi
9:20 PM61 °FRain showers. Passing clouds.14 mph94%29.95 "Hg4 mi
8:50 PM63 °FRain showers. Passing clouds.16 mph88%29.92 "Hg5 mi
8:20 PM63 °FPartly sunny.7 mph88%29.92 "Hg5 mi
7:50 PM63 °FSprinkles. Broken clouds.5 mph88%29.92 "Hg5 mi
7:20 PM63 °FRain showers. Broken clouds.6 mph88%29.92 "Hg6 mi
6:50 PM63 °FRain showers. Broken clouds.5 mph88%29.92 "Hg4 mi
6:20 PM63 °FRain showers. Broken clouds.8 mph88%29.92 "Hg4 mi
5:50 PM66 °FBroken clouds.6 mph68%29.89 "HgN/A
5:20 PM66 °FBroken clouds.8 mph73%29.89 "HgN/A
4:50 PM66 °FBroken clouds.7 mph73%29.92 "HgN/A
4:20 PM66 °FBroken clouds.8 mph73%29.92 "HgN/A
3:50 PM68 °FPartly sunny.5 mph64%29.92 "HgN/A
3:20 PM66 °FPartly sunny.5 mph68%29.92 "HgN/A
2:50 PM68 °FBroken clouds.2 mph60%29.92 "HgN/A
2:20 PM68 °FBroken clouds.5 mph64%29.92 "HgN/A
Weather by CustomWeather, © 2015

See weather overviewHow to use our weather pages